Regional Weather Roundup
Issued by NWS New Orleans/Baton Rouge, LA

Home | Current Version | Previous Version | Text Only | Print | Product List | Glossary On
Versions: 1 2 3 4 5 6 7 8 9 10 11 12 13 14 15 16 17 18 19 20 21 22 23 24 25 26 27
000
ASUS44 KLIX 302311
RWRLIX
NEW ORLEANS REGIONAL WEATHER ROUNDUP
NATIONAL WEATHER SERVICE NEW ORLEANS LA
600 PM CDT THU JUN 30 2016

NOTE: "FAIR" INDICATES FEW OR NO CLOUDS BELOW 12,000 FEET WITH NO
      SIGNIFICANT WEATHER AND/OR OBSTRUCTIONS TO VISIBILITY.
      SKY/WX - SKY CONDITION AND SIGNIFICANT WEATHER.
      TMP - AIR TEMPERATURE.     DP    - DEWPOINT TEMPERATURE.
      RH  - RELATIVE HUMIDITY.   PRES  - PRESSURE.
      HI  - HEAT INDEX.          WCI   - WIND CHILL INDEX.

*  THESE STATIONS ARE NOT NWS OR FAA STATIONS AND ARE NOT UNDER
   NWS QUALITY CONTROL.

LAZ038-040-048-061>063-065>067-069-010000-
SOUTHEAST LOUISIANA

CITY           SKY/WX    TMP DP  RH WIND       PRES   REMARKS
N.O. AUDUBON     N/A     90  76  64 MISG        N/A  HX 101
N.O. INTL ARPT MOSUNNY   88  76  67 S9        29.92S HX  99
N.O. LAKEFRONT MOSUNNY   89  71  55 S8        29.93S HX  95
N.O. DOWNTOWN*   N/A     88  74  63 VRB3      29.93S HX  96
RESERVE*         N/A     91  71  52 SE6       29.91F HX  98
SLIDELL        PTSUNNY   87  74  64 SE5       29.92R HX  95
BATON ROUGE    MOSUNNY   90  74  59 CALM      29.92F HX  99
BOOTHVILLE     CLOUDY    81  75  82 S6        29.93F
BELLE CHASSE   PTSUNNY   86  75  69 SE7       29.92F HX  95
BOGALUSA*      MOCLDY    90  71  53 S6        29.94R HX  96
GALLIANO*      CLOUDY    86  73  66 SE5       29.92F
NEW ROADS*       N/A     87  77  73 CALM      29.92F HX  99
GONZALES*        N/A     91  71  51 E5        29.90F HX  97
HAMMOND*       PTSUNNY   84  72  65 S5        29.92S
HOUMA*         NOT AVBL
PORT FOURCHON* CLEAR     82  72  69 SE6       29.93F

$$

MSZ070-080>082-010000-
SOUTHERN MISSISSIPPI

CITY           SKY/WX    TMP DP  RH WIND       PRES   REMARKS
MCCOMB         SUNNY     93  58  30 NE6       29.93F
GULFPORT       SUNNY     85  74  69 S8        29.93R
BILOXI         SUNNY     85  75  72 S7        29.93R
PASCAGOULA     MOSUNNY   84  75  74 S6        29.93R
STENNIS ARPT*  MOSUNNY   82  70  65 S6          N/A

$$

COASTAL OBSERVATIONS
LAKE AND NEARSHORE STATIONS

STATION/POSITION TIME  TEMP    WIND        PRES    WAVE
                       AIR SEA DIR/SP/G            HT/PER
                 (UTC) (F)     (DEG/KT/KT) (MB)    (FT/S)
PASCAGOULA       2200                      1013.0
WAVELAND YACHT   2200      87                N/A
GRAND ISLE       2200      87                N/A
NEW CANAL        2200      89                N/A
SHELL BEACH      2200      88                N/A

OFFSHORE STATIONS

STATION/POSITION TIME  TEMP    WIND        PRES    WAVE
                       AIR SEA DIR/SP/G            HT/PER
                 (UTC) (F)     (DEG/KT/KT) (MB)    (FT/S)
64 S DAUPHIN ISL 2200   79 85  190/  8/ 10 1013.8

$$





USA.gov is the U.S. government's official web portal to all federal, state and local government web resources and services.